Tracking 23764 objects as of 16-Oct-2021
HD Live streaming from Space Station
objects crossing your sky now

IRIDIUM 33 DEB

Track IRIDIUM 33 DEB now!
10-day predictions


NORAD ID: 38244
Int'l Code: 1997-051ZU
Perigee: 563.2 km
Apogee: 565.3 km
Inclination: 86.4 °
Period: 95.8 minutes
Semi major axis: 6935 km
RCS: 0.0063 m2 (small)
Launch date: September 14, 1997
Source: United States (US)
Launch site: TYURATAM MISSILE AND SPACE COMPLEX (TTMTR)

Note: This is SATELLITE DEBRIS
aabbcc
Your satellite tracking list
Your tracking list is empty




NASA's NSSDC Master Catalog

Two Line Element Set (TLE):
1 38244U 97051ZU  21288.68314465  .00022950  00000-0  16934-2 0  9994
2 38244  86.4114 271.8243 0001511 278.4421  81.6641 15.03167126628048
Source of the keplerian elements: AFSPC